This is the latest recevied weather packets stored in our database for station/object K1TTC. If no packets are shown the sender has not sent any weather packets the latest 10 day(s).
| Time | Temp. | Humidity | Pressure | Rain* | Wind** | Luminosity | Snow |
|---|---|---|---|---|---|---|---|
| 1787916453 | 20.56° C | 82% | 1017.3 hPa | 0 mm | - | 28 W/m² | - |
| 1787915907 | 20.56° C | 82% | 1017.2 hPa | 0 mm | - | 25 W/m² | - |
| 1787915302 | 20.56° C | 82% | 1017.1 hPa | 0 mm | - | 23 W/m² | - |
| 1787914648 | 20° C | 81% | 1016.9 hPa | 0 mm | - | 25 W/m² | - |
| 1787914045 | 20° C | 81% | 1016.8 hPa | 0 mm | - | 40 W/m² | - |
| 1787913446 | 20° C | 81% | 1016.8 hPa | 0 mm | - | 33 W/m² | - |
| 1787912889 | 20° C | 81% | 1016.7 hPa | 0 mm | - | 16 W/m² | - |
| 1787912242 | 20° C | 81% | 1016.7 hPa | 0 mm | - | 12 W/m² | - |
| 1787911642 | 20° C | 80% | 1016.7 hPa | 0 mm | - | 0 W/m² | - |
| 1787911041 | 19.44° C | 80% | 1016.5 hPa | 0 mm | - | 0 W/m² | - |
| 1787910430 | 19.44° C | 79% | 1016.2 hPa | 0 mm | - | 0 W/m² | - |
| 1787909862 | 19.44° C | 78% | 1016 hPa | 0 mm | - | 0 W/m² | - |
| 1787909229 | 19.44° C | 78% | 1016.3 hPa | 0 mm | - | 0 W/m² | - |
| 1787908629 | 19.44° C | 78% | 1016.6 hPa | 0 mm | - | 0 W/m² | - |
| 1787908039 | 19.44° C | 78% | 1016.6 hPa | 0 mm | - | 0 W/m² | - |
| 1787907443 | 20° C | 78% | 1016.6 hPa | 0 mm | - | 0 W/m² | - |
| 1787906831 | 20° C | 78% | 1016.5 hPa | 0 mm | - | 0 W/m² | - |
| 1787906230 | 20° C | 77% | 1016.5 hPa | 0 mm | - | 0 W/m² | - |
| 1787905656 | 20° C | 77% | 1016.5 hPa | 0 mm | - | 0 W/m² | - |
| 1787905023 | 20° C | 77% | 1016.3 hPa | 0 mm | - | 0 W/m² | - |
| 1787904422 | 20° C | 76% | 1016.1 hPa | 0 mm | - | 0 W/m² | - |
| 1787903823 | 20° C | 76% | 1016.2 hPa | 0 mm | - | 0 W/m² | - |
| 1787903224 | 20° C | 76% | 1016.3 hPa | 0 mm | - | 0 W/m² | - |
| 1787902623 | 20.56° C | 76% | 1016.2 hPa | 0 mm | - | 0 W/m² | - |
| 1787902022 | 20.56° C | 76% | 1016.3 hPa | 0 mm | - | 0 W/m² | - |
* Rain latest hour (hover to see other rain measurements)
** Current wind speed in m/s (hover to see current wind gust speed)